When you browse on this site, cookies collect data to enhance your experience and personalize the content and advertising you see.
Visit our Privacy Policy to learn more. By continuing to use the site, you agree to this use of cookies and data.
  • In Hungary
  • List of Countries
  • For 7 days
  • Water Temperature
  • Satellite Maps
  • Weather Map
  • News
  • Weather Widgets
  • user-avatar
    Login

    Hourly Weather Zelenchukskaya

    Today, 18 February, Monday

    Time Temperature Precipitation Wind Pressure Humidity
    00:00 +3°C° 0 mm 4 mps 679 mmHg 57%
    01:00 +2°C° 0 mm 5 mps 678 mmHg 57%
    02:00 +2°C° 0 mm 5 mps 678 mmHg 57%
    03:00 +2°C° 0 mm 6 mps 677 mmHg 56%
    04:00 +2°C° 0 mm 6 mps 677 mmHg 55%
    05:00 +2°C° 0 mm 5 mps 677 mmHg 55%
    06:00 +2°C° 0 mm 5 mps 676 mmHg 55%
    07:00 +2°C° 0 mm 5 mps 676 mmHg 54%
    08:00 +4°C° 0 mm 4 mps 677 mmHg 53%
    09:00 +4°C° 0 mm 4 mps 677 mmHg 52%
    10:00 +5°C° 0 mm 4 mps 677 mmHg 48%
    11:00 +6°C° 0 mm 5 mps 677 mmHg 45%
    12:00 +8°C° 0 mm 6 mps 677 mmHg 41%
    13:00 +7°C° 0 mm 6 mps 677 mmHg 45%
    14:00 +7°C° 0 mm 6 mps 677 mmHg 49%
    15:00 +5°C° 0 mm 6 mps 677 mmHg 53%
    16:00 +3°C° 0.1 mm 5 mps 677 mmHg 62%
    17:00 +1°C° 0.1 mm 4 mps 677 mmHg 72%
    18:00 +1°C° 0.1 mm 3 mps 677 mmHg 81%
    19:00 0°C° 0.1 mm 3 mps 677 mmHg 83%
    20:00 -1°C° 0.1 mm 3 mps 677 mmHg 85%
    21:00 -2°C° 0.1 mm 3 mps 678 mmHg 86%
    22:00 -2°C° 0.1 mm 2 mps 678 mmHg 87%
    23:00 -2°C° 0.1 mm 2 mps 678 mmHg 87%

    Tomorrow, 19 February, Tuesday

    Time Temperature Precipitation Wind Pressure Humidity
    00:00 -3°C° 0.1 mm 2 mps 678 mmHg 87%
    01:00 -3°C° 0 mm 2 mps 678 mmHg 86%
    02:00 -1°C° 0 mm 1 mps 679 mmHg 85%
    03:00 -2°C° 0 mm 1 mps 679 mmHg 85%
    04:00 -2°C° 0 mm 1 mps 679 mmHg 83%
    05:00 -2°C° 0 mm 1 mps 680 mmHg 81%
    06:00 -2°C° 0 mm 1 mps 680 mmHg 79%
    07:00 -1°C° 0 mm 1 mps 681 mmHg 72%
    08:00 -1°C° 0 mm 1 mps 681 mmHg 65%
    09:00 0°C° 0 mm 1 mps 682 mmHg 57%
    10:00 +1°C° 0 mm 1 mps 682 mmHg 52%
    11:00 +2°C° 0 mm 1 mps 683 mmHg 47%
    12:00 +2°C° 0 mm 2 mps 683 mmHg 42%
    13:00 +2°C° 0 mm 2 mps 683 mmHg 43%
    14:00 +2°C° 0 mm 2 mps 683 mmHg 44%
    15:00 +2°C° 0 mm 2 mps 683 mmHg 46%
    16:00 -1°C° 0 mm 2 mps 683 mmHg 52%
    17:00 0°C° 0 mm 1 mps 683 mmHg 58%
    18:00 -1°C° 0 mm 1 mps 683 mmHg 64%
    19:00 -1°C° 0 mm 1 mps 683 mmHg 62%
    20:00 -1°C° 0 mm 1 mps 684 mmHg 59%
    21:00 -1°C° 0 mm 1 mps 684 mmHg 57%
    22:00 -1°C° 0 mm 1 mps 684 mmHg 53%
    23:00 -1°C° 0 mm 1 mps 684 mmHg 49%

    Day after tomorrow, 20 February, Wednesday

    Time Temperature Precipitation Wind Pressure Humidity
    00:00 -1°C° 0 mm 1 mps 684 mmHg 45%
    01:00 -1°C° 0 mm 1 mps 683 mmHg 42%
    02:00 -1°C° 0 mm 1 mps 683 mmHg 40%
    03:00 0°C° 0 mm 1 mps 683 mmHg 37%
    04:00 0°C° 0 mm 1 mps 683 mmHg 36%
    05:00 0°C° 0 mm 1 mps 682 mmHg 35%
    06:00 0°C° 0 mm 1 mps 682 mmHg 33%
    07:00 +1°C° 0 mm 1 mps 682 mmHg 32%
    08:00 +2°C° 0 mm 1 mps 683 mmHg 31%
    09:00 +2°C° 0 mm 0 mps 683 mmHg 29%
    10:00 +5°C° 0 mm 1 mps 683 mmHg 28%
    11:00 +6°C° 0 mm 1 mps 683 mmHg 27%
    12:00 +8°C° 0 mm 1 mps 683 mmHg 26%
    13:00 +6°C° 0 mm 2 mps 682 mmHg 29%
    14:00 +6°C° 0 mm 2 mps 682 mmHg 31%
    15:00 +6°C° 0 mm 2 mps 682 mmHg 34%
    16:00 +5°C° 0 mm 2 mps 681 mmHg 40%
    17:00 +4°C° 0 mm 1 mps 681 mmHg 47%
    18:00 +2°C° 0 mm 1 mps 681 mmHg 53%
    19:00 +2°C° 0 mm 1 mps 681 mmHg 52%
    20:00 +2°C° 0 mm 1 mps 681 mmHg 51%
    21:00 +1°C° 0 mm 1 mps 681 mmHg 50%
    22:00 +1°C° 0 mm 1 mps 681 mmHg 48%
    23:00 +1°C° 0 mm 1 mps 681 mmHg 45%

    21 February, Thursday

    Time Temperature Precipitation Wind Pressure Humidity
    00:00 +1°C° 0 mm 1 mps 681 mmHg 43%
    01:00 +1°C° 0 mm 1 mps 681 mmHg 42%
    02:00 +2°C° 0 mm 1 mps 681 mmHg 41%
    03:00 +2°C° 0 mm 1 mps 681 mmHg 40%
    04:00 +2°C° 0 mm 1 mps 680 mmHg 41%
    05:00 +1°C° 0 mm 1 mps 680 mmHg 43%
    06:00 +1°C° 0 mm 1 mps 680 mmHg 44%
    07:00 +2°C° 0 mm 1 mps 681 mmHg 42%
    08:00 +3°C° 0 mm 1 mps 681 mmHg 40%
    09:00 +5°C° 0 mm 1 mps 681 mmHg 38%
    10:00 +6°C° 0 mm 1 mps 681 mmHg 36%
    11:00 +7°C° 0 mm 1 mps 681 mmHg 35%
    12:00 +8°C° 0 mm 2 mps 681 mmHg 33%
    13:00 +8°C° 0 mm 2 mps 681 mmHg 35%
    14:00 +8°C° 0 mm 2 mps 681 mmHg 37%
    15:00 +8°C° 0 mm 2 mps 681 mmHg 39%
    16:00 +6°C° 0 mm 2 mps 681 mmHg 45%
    17:00 +5°C° 0 mm 1 mps 680 mmHg 52%
    18:00 +4°C° 0 mm 1 mps 680 mmHg 58%
    19:00 +3°C° 0 mm 1 mps 680 mmHg 58%
    20:00 +3°C° 0 mm 1 mps 681 mmHg 59%
    21:00 +2°C° 0 mm 1 mps 681 mmHg 59%
    22:00 +2°C° 0 mm 1 mps 681 mmHg 59%
    23:00 +2°C° 0 mm 1 mps 681 mmHg 60%

    22 February, Friday

    Time Temperature Precipitation Wind Pressure Humidity
    00:00 +1°C° 0 mm 2 mps 681 mmHg 61%
    01:00 +1°C° 0 mm 2 mps 681 mmHg 62%
    02:00 +1°C° 0 mm 2 mps 681 mmHg 62%
    03:00 +1°C° 0 mm 2 mps 681 mmHg 63%
    04:00 +1°C° 0 mm 1 mps 680 mmHg 66%
    05:00 +1°C° 0 mm 1 mps 680 mmHg 69%
    06:00 +1°C° 0 mm 1 mps 680 mmHg 71%
    07:00 +2°C° 0 mm 1 mps 680 mmHg 70%
    08:00 +2°C° 0 mm 1 mps 681 mmHg 69%
    09:00 +3°C° 0 mm 1 mps 681 mmHg 67%
    10:00 +3°C° 0 mm 2 mps 681 mmHg 65%
    11:00 +4°C° 0 mm 2 mps 681 mmHg 62%
    12:00 +4°C° 0 mm 2 mps 681 mmHg 59%
    13:00 +4°C° 0.1 mm 2 mps 681 mmHg 59%
    14:00 +4°C° 0.1 mm 2 mps 680 mmHg 59%
    15:00 +4°C° 0.1 mm 2 mps 680 mmHg 59%
    16:00 +4°C° 0 mm 1 mps 680 mmHg 64%
    17:00 +3°C° 0 mm 1 mps 680 mmHg 69%
    18:00 +2°C° 0 mm 1 mps 679 mmHg 75%
    19:00 +2°C° 0 mm 1 mps 679 mmHg 74%
    20:00 +2°C° 0 mm 1 mps 679 mmHg 73%
    21:00 +2°C° 0 mm 1 mps 679 mmHg 71%
    22:00 +2°C° 0 mm 1 mps 679 mmHg 69%
    23:00 +2°C° 0 mm 1 mps 679 mmHg 66%

    23 February, Saturday

    Time Temperature Precipitation Wind Pressure Humidity
    00:00 +2°C° 0 mm 1 mps 679 mmHg 63%
    01:00 +2°C° 0 mm 1 mps 678 mmHg 63%
    02:00 +1°C° 0 mm 1 mps 678 mmHg 64%
    03:00 +1°C° 0 mm 1 mps 678 mmHg 65%
    04:00 +1°C° 0 mm 1 mps 678 mmHg 70%
    05:00 +1°C° 0 mm 1 mps 678 mmHg 74%
    06:00 +1°C° 0 mm 1 mps 678 mmHg 79%
    07:00 +1°C° 0.1 mm 1 mps 678 mmHg 79%
    08:00 -1°C° 0.1 mm 2 mps 678 mmHg 80%
    09:00 -1°C° 0.1 mm 2 mps 679 mmHg 81%
    10:00 -2°C° 0.4 mm 2 mps 679 mmHg 82%
    11:00 -2°C° 0.4 mm 3 mps 679 mmHg 84%
    12:00 -4°C° 0.4 mm 3 mps 678 mmHg 85%
    13:00 -4°C° 0.3 mm 3 mps 678 mmHg 85%
    14:00 -5°C° 0.3 mm 3 mps 678 mmHg 85%
    15:00 -5°C° 0.3 mm 3 mps 678 mmHg 86%
    16:00 -6°C° 0.6 mm 3 mps 679 mmHg 88%
    17:00 -7°C° 0.6 mm 3 mps 679 mmHg 90%
    18:00 -8°C° 0.6 mm 3 mps 679 mmHg 93%
    19:00 -9°C° 0.7 mm 3 mps 679 mmHg 93%
    20:00 -8°C° 0.7 mm 2 mps 679 mmHg 93%
    21:00 -9°C° 0.7 mm 2 mps 680 mmHg 93%
    22:00 -10°C° 0.6 mm 2 mps 680 mmHg 93%
    23:00 -10°C° 0.6 mm 2 mps 680 mmHg 93%
    Show more